Zurück zum Katalog

STARLINK-37292

AktivKommunikationSSO
NORAD 68787·PAYLOAD·🇺🇸 United States

Gestartet Apr 19, 2026 von Vandenberg Space Force Base

Loading…

Nächste Überflüge (nächste 24 Stunden)

TLE

AktuellSource: CelesTrak SupGP

Epoche: Sep 15, 2026, 04:07 UTC

1 68787C 26086X   26258.17201389 -.00059974  00000+0 -18620-2 0  2584
2 68787  97.2844 293.7529 0001019  89.0802 264.8688 15.33464838    15

Verfolge STARLINK-37292 in Echtzeit mit AllMySat

Download on the App Store